Location: St. Louis
(38.6270°N, 90.1994°W)
Time: 01:33:29
(UTC-06:00)

Vanguard 2 - Pass Details

Date: 03 December 2021
Orbit: 553 x 2936 km, 32.9° (Epoch: 16 January)

Event Time Altitude Azimuth Distance (km) Brightness Sun altitude
Rises 13:46:05 0° 244° (WSW) 2,883 11.4 23.4°
Reaches altitude 10° 13:48:09 10° 236° (WSW) 2,107 11.1 23.2°
Maximum altitude 13:52:41 43° 165° (SSE) 1,179 9.4 22.8°
Drops below altitude 10° 13:59:30 10° 96° (E) 3,175 10.5 22.1°
Sets 14:03:18 0° 91° (E) 4,552 11.2 21.7°
